"Sample Date","Sample Time","Sample Value","Units","Flow Rate","Laser Status","Micron Size 0","Counts/Channel 0","Micron Size 1","Counts/Channel 1","Micron Size 2","Counts/Channel 2","Micron Size 3","Counts/Channel 3","Micron Size 4","Counts/Channel 4","Micron Size 5","Counts/Channel 5","Micron Size 6","Counts/Channel 6","Micron Size 7","Counts/Channel 7","Micron Size 8","Counts/Channel 8","Micron Size 9","Counts/Channel 9","Micron Size 10","Counts/Channel 10","Micron Size 11","Counts/Channel 11","Micron Size 12","Counts/Channel 12","Micron Size 13","Counts/Channel 13","Micron Size 14","Counts/Channel 14","Micron Size 15","Counts/Channel 15","Micron Size 16","Counts/Channel 16","Micron Size 17","Counts/Channel 17","Micron Size 18","Counts/Channel 18","Micron Size 19","Counts/Channel 19","Micron Size 20","Counts/Channel 20","Micron Size 21","Counts/Channel 21","Micron Size 22","Counts/Channel 22","Micron Size 23","Counts/Channel 23","Micron Size 24","Counts/Channel 24","Micron Size 25","Counts/Channel 25","Micron Size 26","Counts/Channel 26","Micron Size 27","Counts/Channel 27","Micron Size 28","Counts/Channel 28","Micron Size 29","Counts/Channel 29","Micron Size 30","Counts/Channel 30","Micron Size 31","Counts/Channel 31"
"03/04/08","00:00:04",40092.000,"cc",28316.754,1,0.100,33887.000,0.200,3037.000,0.300,1317.000,0.500,1360.000,1.000,491.000,5.000,0
"03/04/08","00:00:10",39641.000,"cc",28331.127,1,0.100,33808.000,0.200,2832.000,0.300,1173.000,0.500,1340.000,1.000,488.000,5.000,0
"03/04/08","00:00:16",39695.000,"cc",28313.158,1,0.100,33761.000,0.200,2824.000,0.300,1244.000,0.500,1366.000,1.000,500.000,5.000,0
"03/04/08","00:00:22",39457.000,"cc",28298.006,1,0.100,33442.000,0.200,2827.000,0.300,1282.000,0.500,1385.000,1.000,521.000,5.000,0
"03/04/08","00:00:28",40380.000,"cc",28296.404,1,0.100,34014.000,0.200,3053.000,0.300,1348.000,0.500,1425.000,1.000,539.000,5.000,1.000
"03/04/08","00:00:34",39648.000,"cc",28338.969,1,0.100,33553.000,0.200,2978.000,0.300,1246.000,0.500,1348.000,1.000,523.000,5.000,0
"03/04/08","00:00:40",39163.000,"cc",28322.383,1,0.100,33332.000,0.200,2800.000,0.300,1193.000,0.500,1347.000,1.000,491.000,5.000,0
"03/04/08","00:00:46",38865.000,"cc",28302.475,1,0.100,33341.000,0.200,2706.000,0.300,1082.000,0.500,1284.000,1.000,452.000,5.000,0
"03/04/08","00:00:52",39570.000,"cc",28290.352,1,0.100,33713.000,0.200,2817.000,0.300,1202.000,0.500,1352.000,1.000,486.000,5.000,0
"03/04/08","00:00:58",38992.000,"cc",28335.957,1,0.100,33388.000,0.200,2773.000,0.300,1084.000,0.500,1263.000,1.000,484.000,5.000,0
"03/04/08","00:01:04",39266.000,"cc",28321.713,1,0.100,33528.000,0.200,2759.000,0.300,1167.000,0.500,1328.000,1.000,484.000,5.000,0
"03/04/08","00:01:10",39781.000,"cc",28347.869,1,0.100,33594.000,0.200,2989.000,0.300,1359.000,0.500,1332.000,1.000,507.000,5.000,0
"03/04/08","00:01:16",39944.000,"cc",28333.867,1,0.100,33745.000,0.200,2985.000,0.300,1282.000,0.500,1407.000,1.000,525.000,5.000,0
"03/04/08","00:01:22",40021.000,"cc",28301.557,1,0.100,33713.000,0.200,3016.000,0.300,1331.000,0.500,1431.000,1.000,530.000,5.000,0
"03/04/08","00:01:28",40185.000,"cc",28312.838,1,0.100,34109.000,0.200,2882.000,0.300,1336.000,0.500,1363.000,1.000,495.000,5.000,0
"03/04/08","00:01:34",40336.000,"cc",28291.158,1,0.100,34194.000,0.200,2943.000,0.300,1264.000,0.500,1443.000,1.000,492.000,5.000,0
"03/04/08","00:01:40",40734.000,"cc",28317.840,1,0.100,34268.000,0.200,3039.000,0.300,1402.000,0.500,1479.000,1.000,546.000,5.000,0
"03/04/08","00:01:46",41200.000,"cc",28366.705,1,0.100,34285.000,0.200,3271.000,0.300,1541.000,0.500,1539.000,1.000,564.000,5.000,0
"03/04/08","00:01:52",40581.000,"cc",28296.346,1,0.100,33943.000,0.200,3221.000,0.300,1449.000,0.500,1438.000,1.000,530.000,5.000,0
"03/04/08","00:01:58",40268.000,"cc",28303.133,1,0.100,33834.000,0.200,3090.000,0.300,1333.000,0.500,1460.000,1.000,551.000,5.000,0
"03/04/08","00:02:04",39727.000,"cc",28345.215,1,0.100,33698.000,0.200,2916.000,0.300,1253.000,0.500,1351.000,1.000,509.000,5.000,0
"03/04/08","00:02:10",40201.000,"cc",28307.029,1,0.100,34091.000,0.200,2912.000,0.300,1318.000,0.500,1363.000,1.000,517.000,5.000,0
"03/04/08","00:02:16",39550.000,"cc",28319.254,1,0.100,33762.000,0.200,2777.000,0.300,1232.000,0.500,1303.000,1.000,475.000,5.000,1.000
"03/04/08","00:02:22",39101.000,"cc",28321.582,1,0.100,33477.000,0.200,2688.000,0.300,1166.000,0.500,1275.000,1.000,495.000,5.000,0
"03/04/08","00:02:28",38725.000,"cc",28321.522,1,0.100,33379.000,0.200,2622.000,0.300,1026.000,0.500,1260.000,1.000,438.000,5.000,0
"03/04/08","00:02:34",38840.000,"cc",28265.191,1,0.100,33524.000,0.200,2613.000,0.300,1004.000,0.500,1251.000,1.000,448.000,5.000,0
"03/04/08","00:02:40",38250.000,"cc",28313.318,1,0.100,33017.000,0.200,2560.000,0.300,1000.000,0.500,1217.000,1.000,456.000,5.000,0
"03/04/08","00:02:46",38486.000,"cc",28254.471,1,0.100,33324.000,0.200,2570.000,0.300,974.000,0.500,1163.000,1.000,455.000,5.000,0
"03/04/08","00:02:52",38374.000,"cc",28394.469,1,0.100,33052.000,0.200,2650.000,0.300,1016.000,0.500,1207.000,1.000,449.000,5.000,0
"03/04/08","00:02:58",38988.000,"cc",28267.744,1,0.100,33387.000,0.200,2742.000,0.300,1070.000,0.500,1263.000,1.000,526.000,5.000,0
"03/04/08","00:03:04",38737.000,"cc",28326.344,1,0.100,33211.000,0.200,2631.000,0.300,1104.000,0.500,1309.000,1.000,482.000,5.000,0
"03/04/08","00:03:10",40284.000,"cc",28268.436,1,0.100,33900.000,0.200,2974.000,0.300,1383.000,0.500,1534.000,1.000,493.000,5.000,0
"03/04/08","00:03:16",40739.000,"cc",28385.522,1,0.100,34045.000,0.200,3251.000,0.300,1448.000,0.500,1503.000,1.000,492.000,5.000,0
"03/04/08","00:03:22",40495.000,"cc",28333.262,1,0.100,33980.000,0.200,3139.000,0.300,1405.000,0.500,1442.000,1.000,529.000,5.000,0
"03/04/08","00:03:28",40156.000,"cc",28313.031,1,0.100,33908.000,0.200,3035.000,0.300,1301.000,0.500,1393.000,1.000,519.000,5.000,0
"03/04/08","00:03:34",40396.000,"cc",28309.645,1,0.100,34037.000,0.200,3075.000,0.300,1377.000,0.500,1403.000,1.000,504.000,5.000,0
"03/04/08","00:03:40",40355.000,"cc",28336.268,1,0.100,33973.000,0.200,2960.000,0.300,1430.000,0.500,1471.000,1.000,521.000,5.000,0
"03/04/08","00:03:46",40054.000,"cc",28366.658,1,0.100,33848.000,0.200,2992.000,0.300,1333.000,0.500,1362.000,1.000,519.000,5.000,0
"03/04/08","00:03:52",39402.000,"cc",28309.326,1,0.100,33617.000,0.200,2821.000,0.300,1110.000,0.500,1368.000,1.000,486.000,5.000,0
"03/04/08","00:03:58",39404.000,"cc",28263.066,1,0.100,33431.000,0.200,2878.000,0.300,1272.000,0.500,1306.000,1.000,517.000,5.000,0
"03/04/08","00:04:04",39089.000,"cc",28314.793,1,0.100,33573.000,0.200,2727.000,0.300,1090.000,0.500,1233.000,1.000,466.000,5.000,0
"03/04/08","00:04:10",38628.000,"cc",28340.688,1,0.100,33300.000,0.200,2582.000,0.300,1052.000,0.500,1252.000,1.000,442.000,5.000,0
"03/04/08","00:04:16",39009.000,"cc",28296.342,1,0.100,33687.000,0.200,2638.000,0.300,1071.000,0.500,1179.000,1.000,434.000,5.000,0
"03/04/08","00:04:22",38247.000,"cc",28316.395,1,0.100,32987.000,0.200,2572.000,0.300,1030.000,0.500,1194.000,1.000,464.000,5.000,0
"03/04/08","00:04:28",39155.000,"cc",28298.932,1,0.100,33879.000,0.200,2627.000,0.300,1009.000,0.500,1170.000,1.000,470.000,5.000,0
"03/04/08","00:04:34",38539.000,"cc",28318.416,1,0.100,33090.000,0.200,2680.000,0.300,1073.000,0.500,1238.000,1.000,458.000,5.000,0
"03/04/08","00:04:40",38701.000,"cc",28318.705,1,0.100,33340.000,0.200,2632.000,0.300,1066.000,0.500,1225.000,1.000,438.000,5.000,0
"03/04/08","00:04:46",38418.000,"cc",28354.766,1,0.100,33234.000,0.200,2515.000,0.300,1005.000,0.500,1234.000,1.000,430.000,5.000,0
"03/04/08","00:04:52",38049.000,"cc",28324.629,1,0.100,32783.000,0.200,2523.000,0.300,1056.000,0.500,1225.000,1.000,462.000,5.000,0
"03/04/08","00:04:58",38484.000,"cc",28296.484,1,0.100,33166.000,0.200,2540.000,0.300,1076.000,0.500,1211.000,1.000,491.000,5.000,0
"03/04/08","00:05:04",38054.000,"cc",28338.428,1,0.100,32947.000,0.200,2544.000,0.300,1004.000,0.500,1094.000,1.000,465.000,5.000,0
"03/04/08","00:05:10",39440.000,"cc",28305.465,1,0.100,33731.000,0.200,2745.000,0.300,1199.000,0.500,1308.000,1.000,457.000,5.000,0
"03/04/08","00:05:16",40442.000,"cc",28295.867,1,0.100,33903.000,0.200,3086.000,0.300,1334.000,0.500,1532.000,1.000,587.000,5.000,0
"03/04/08","00:05:22",40378.000,"cc",28296.440,1,0.100,34121.000,0.200,2965.000,0.300,1296.000,0.500,1491.000,1.000,505.000,5.000,0
"03/04/08","00:05:28",39511.000,"cc",28354.234,1,0.100,33593.000,0.200,2788.000,0.300,1259.000,0.500,1360.000,1.000,511.000,5.000,0
"03/04/08","00:05:34",39539.000,"cc",28310.887,1,0.100,33775.000,0.200,2800.000,0.300,1109.000,0.500,1348.000,1.000,507.000,5.000,0
"03/04/08","00:05:40",39339.000,"cc",28360.336,1,0.100,33556.000,0.200,2831.000,0.300,1158.000,0.500,1296.000,1.000,498.000,5.000,0
"03/04/08","00:05:46",39094.000,"cc",28309.254,1,0.100,33625.000,0.200,2682.000,0.300,1015.000,0.500,1321.000,1.000,451.000,5.000,0
"03/04/08","00:05:52",38156.000,"cc",28302.709,1,0.100,33030.000,0.200,2502.000,0.300,1053.000,0.500,1163.000,1.000,408.000,5.000,0
"03/04/08","00:05:58",39157.000,"cc",28272.025,1,0.100,33434.000,0.200,2755.000,0.300,1163.000,0.500,1344.000,1.000,461.000,5.000,0
"03/04/08","00:06:04",38118.000,"cc",28288.494,1,0.100,32892.000,0.200,2573.000,0.300,985.000,0.500,1225.000,1.000,443.000,5.000,0
"03/04/08","00:06:10",38901.000,"cc",28312.357,1,0.100,33215.000,0.200,2721.000,0.300,1209.000,0.500,1280.000,1.000,476.000,5.000,0
"03/04/08","00:06:16",39170.000,"cc",28343.467,1,0.100,33401.000,0.200,2793.000,0.300,1241.000,0.500,1260.000,1.000,475.000,5.000,0
"03/04/08","00:06:22",39630.000,"cc",28260.922,1,0.100,33656.000,0.200,2816.000,0.300,1247.000,0.500,1368.000,1.000,543.000,5.000,0
"03/04/08","00:06:28",38791.000,"cc",28358.315,1,0.100,33220.000,0.200,2655.000,0.300,1107.000,0.500,1333.000,1.000,476.000,5.000,0
"03/04/08","00:06:34",38728.000,"cc",28372.381,1,0.100,33217.000,0.200,2626.000,0.300,1151.000,0.500,1261.000,1.000,473.000,5.000,0
"03/04/08","00:06:40",38529.000,"cc",28330.326,1,0.100,33184.000,0.200,2607.000,0.300,1060.000,0.500,1218.000,1.000,460.000,5.000,0
"03/04/08","00:06:46",38557.000,"cc",28263.949,1,0.100,33078.000,0.200,2656.000,0.300,1086.000,0.500,1246.000,1.000,491.000,5.000,0
"03/04/08","00:06:52",38442.000,"cc",28300.320,1,0.100,33060.000,0.200,2584.000,0.300,1088.000,0.500,1214.000,1.000,496.000,5.000,0
"03/04/08","00:06:58",39003.000,"cc",28332.635,1,0.100,33561.000,0.200,2572.000,0.300,1107.000,0.500,1281.000,1.000,482.000,5.000,0
"03/04/08","00:07:04",38902.000,"cc",28302.281,1,0.100,33379.000,0.200,2709.000,0.300,1088.000,0.500,1232.000,1.000,494.000,5.000,0
"03/04/08","00:07:10",39080.000,"cc",28364.984,1,0.100,33460.000,0.200,2805.000,0.300,1087.000,0.500,1260.000,1.000,468.000,5.000,0
"03/04/08","00:07:16",39410.000,"cc",28361.129,1,0.100,33498.000,0.200,2826.000,0.300,1222.000,0.500,1336.000,1.000,528.000,5.000,0
"03/04/08","00:07:22",38945.000,"cc",28266.695,1,0.100,33371.000,0.200,2732.000,0.300,1122.000,0.500,1268.000,1.000,452.000,5.000,0
"03/04/08","00:07:28",38583.000,"cc",28322.213,1,0.100,32951.000,0.200,2738.000,0.300,1145.000,0.500,1284.000,1.000,465.000,5.000,0
"03/04/08","00:07:34",38395.000,"cc",28317.623,1,0.100,33016.000,0.200,2607.000,0.300,1059.000,0.500,1221.000,1.000,492.000,5.000,0
"03/04/08","00:07:40",39239.000,"cc",28282.654,1,0.100,33469.000,0.200,2766.000,0.300,1153.000,0.500,1380.000,1.000,471.000,5.000,0
"03/04/08","00:07:46",38080.000,"cc",28323.025,1,0.100,32763.000,0.200,2624.000,0.300,1038.000,0.500,1207.000,1.000,448.000,5.000,0
"03/04/08","00:07:52",38508.000,"cc",28318.129,1,0.100,33188.000,0.200,2581.000,0.300,1036.000,0.500,1234.000,1.000,469.000,5.000,0
"03/04/08","00:07:58",38123.000,"cc",28310.557,1,0.100,32971.000,0.200,2534.000,0.300,989.000,0.500,1174.000,1.000,455.000,5.000,0
"03/04/08","00:08:04",38252.000,"cc",28296.277,1,0.100,32816.000,0.200,2615.000,0.300,1101.000,0.500,1259.000,1.000,461.000,5.000,0
"03/04/08","00:08:10",38341.000,"cc",28316.578,1,0.100,33011.000,0.200,2548.000,0.300,1102.000,0.500,1204.000,1.000,476.000,5.000,0
"03/04/08","00:08:16",39005.000,"cc",28288.139,1,0.100,33287.000,0.200,2793.000,0.300,1161.000,0.500,1281.000,1.000,483.000,5.000,0
"03/04/08","00:08:22",38355.000,"cc",28353.299,1,0.100,32915.000,0.200,2628.000,0.300,1122.000,0.500,1243.000,1.000,447.000,5.000,0
"03/04/08","00:08:28",38911.000,"cc",28275.279,1,0.100,33338.000,0.200,2655.000,0.300,1088.000,0.500,1310.000,1.000,520.000,5.000,0
"03/04/08","00:08:34",38685.000,"cc",28305.254,1,0.100,33152.000,0.200,2706.000,0.300,1130.000,0.500,1261.000,1.000,436.000,5.000,0
"03/04/08","00:08:40",38859.000,"cc",28324.883,1,0.100,33185.000,0.200,2751.000,0.300,1160.000,0.500,1277.000,1.000,486.000,5.000,0
"03/04/08","00:08:46",37919.000,"cc",28317.285,1,0.100,32860.000,0.200,2516.000,0.300,1028.000,0.500,1084.000,1.000,431.000,5.000,0
"03/04/08","00:08:52",38340.000,"cc",28328.598,1,0.100,33073.000,0.200,2564.000,0.300,997.000,0.500,1248.000,1.000,458.000,5.000,0
"03/04/08","00:08:58",39075.000,"cc",28420.113,1,0.100,33305.000,0.200,2740.000,0.300,1224.000,0.500,1287.000,1.000,519.000,5.000,0
"03/04/08","00:09:04",39596.000,"cc",28241.998,1,0.100,33551.000,0.200,2995.000,0.300,1194.000,0.500,1334.000,1.000,522.000,5.000,0
"03/04/08","00:09:10",40133.000,"cc",28252.613,1,0.100,33935.000,0.200,2997.000,0.300,1289.000,0.500,1392.000,1.000,520.000,5.000,0
"03/04/08","00:09:16",39298.000,"cc",28295.420,1,0.100,33637.000,0.200,2680.000,0.300,1139.000,0.500,1288.000,1.000,554.000,5.000,0
"03/04/08","00:09:22",38251.000,"cc",28349.199,1,0.100,33024.000,0.200,2529.000,0.300,1017.000,0.500,1210.000,1.000,471.000,5.000,0
"03/04/08","00:09:28",37866.000,"cc",28266.785,1,0.100,32910.000,0.200,2444.000,0.300,951.000,0.500,1141.000,1.000,420.000,5.000,0
"03/04/08","00:09:34",37817.000,"cc",28328.627,1,0.100,32883.000,0.200,2506.000,0.300,900.000,0.500,1125.000,1.000,403.000,5.000,0
"03/04/08","00:09:40",37922.000,"cc",28362.691,1,0.100,32794.000,0.200,2521.000,0.300,1007.000,0.500,1162.000,1.000,438.000,5.000,0
"03/04/08","00:09:46",37757.000,"cc",28245.600,1,0.100,32658.000,0.200,2478.000,0.300,998.000,0.500,1160.000,1.000,463.000,5.000,0
"03/04/08","00:09:52",37783.000,"cc",28309.754,1,0.100,32618.000,0.200,2506.000,0.300,994.000,0.500,1191.000,1.000,474.000,5.000,0
"03/04/08","00:09:58",38236.000,"cc",28250.914,1,0.100,32816.000,0.200,2674.000,0.300,1059.000,0.500,1214.000,1.000,473.000,5.000,0
"03/04/08","00:10:04",38133.000,"cc",28398.748,1,0.100,33070.000,0.200,2462.000,0.300,984.000,0.500,1189.000,1.000,428.000,5.000,0
"03/04/08","00:10:10",38144.000,"cc",28267.426,1,0.100,33030.000,0.200,2480.000,0.300,995.000,0.500,1204.000,1.000,435.000,5.000,0
"03/04/08","00:10:16",38060.000,"cc",28267.566,1,0.100,32889.000,0.200,2511.000,0.300,1028.000,0.500,1130.000,1.000,502.000,5.000,0
"03/04/08","00:10:22",38156.000,"cc",28368.992,1,0.100,32825.000,0.200,2640.000,0.300,959.000,0.500,1274.000,1.000,458.000,5.000,0
"03/04/08","00:10:28",37894.000,"cc",28378.971,1,0.100,32783.000,0.200,2497.000,0.300,900.000,0.500,1254.000,1.000,460.000,5.000,0
"03/04/08","00:10:34",37855.000,"cc",28295.338,1,0.100,32654.000,0.200,2551.000,0.300,968.000,0.500,1230.000,1.000,452.000,5.000,0
"03/04/08","00:10:40",38037.000,"cc",28292.643,1,0.100,33009.000,0.200,2457.000,0.300,975.000,0.500,1171.000,1.000,425.000,5.000,0
"03/04/08","00:10:46",38123.000,"cc",28299.715,1,0.100,32847.000,0.200,2542.000,0.300,1018.000,0.500,1248.000,1.000,468.000,5.000,0
"03/04/08","00:10:52",37830.000,"cc",28264.254,1,0.100,32696.000,0.200,2522.000,0.300,983.000,0.500,1195.000,1.000,434.000,5.000,0
"03/04/08","00:10:58",38218.000,"cc",28325.613,1,0.100,33156.000,0.200,2479.000,0.300,1006.000,0.500,1155.000,1.000,422.000,5.000,0
"03/04/08","00:11:04",37754.000,"cc",28345.590,1,0.100,32652.000,0.200,2502.000,0.300,986.000,0.500,1170.000,1.000,444.000,5.000,0
"03/04/08","00:11:10",38027.000,"cc",28298.738,1,0.100,32841.000,0.200,2513.000,0.300,1036.000,0.500,1197.000,1.000,440.000,5.000,0
"03/04/08","00:11:16",38056.000,"cc",28369.510,1,0.100,32859.000,0.200,2544.000,0.300,1038.000,0.500,1192.000,1.000,423.000,5.000,0
"03/04/08","00:11:22",38279.000,"cc",28289.623,1,0.100,32848.000,0.200,2643.000,0.300,1033.000,0.500,1262.000,1.000,493.000,5.000,0
"03/04/08","00:11:28",37786.000,"cc",28306.072,1,0.100,32691.000,0.200,2472.000,0.300,973.000,0.500,1232.000,1.000,418.000,5.000,0
"03/04/08","00:11:34",38276.000,"cc",28317.412,1,0.100,33053.000,0.200,2520.000,0.300,1010.000,0.500,1236.000,1.000,457.000,5.000,0
"03/04/08","00:11:40",38383.000,"cc",28288.481,1,0.100,33080.000,0.200,2607.000,0.300,1057.000,0.500,1162.000,1.000,477.000,5.000,0
"03/04/08","00:11:46",38396.000,"cc",28316.908,1,0.100,33213.000,0.200,2576.000,0.300,975.000,0.500,1194.000,1.000,438.000,5.000,0
"03/04/08","00:11:52",38067.000,"cc",28311.744,1,0.100,32865.000,0.200,2534.000,0.300,1014.000,0.500,1197.000,1.000,457.000,5.000,0
"03/04/08","00:11:58",38862.000,"cc",28312.877,1,0.100,33164.000,0.200,2714.000,0.300,1160.000,0.500,1368.000,1.000,456.000,5.000,0
"03/04/08","00:12:04",38130.000,"cc",28317.496,1,0.100,32974.000,0.200,2465.000,0.300,1018.000,0.500,1191.000,1.000,482.000,5.000,0
"03/04/08","00:12:10",37807.000,"cc",28354.555,1,0.100,32619.000,0.200,2579.000,0.300,981.000,0.500,1155.000,1.000,473.000,5.000,0
"03/04/08","00:12:16",37802.000,"cc",28344.898,1,0.100,32631.000,0.200,2552.000,0.300,983.000,0.500,1208.000,1.000,428.000,5.000,0
"03/04/08","00:12:22",38270.000,"cc",28314.320,1,0.100,33097.000,0.200,2513.000,0.300,993.000,0.500,1228.000,1.000,439.000,5.000,0
"03/04/08","00:12:28",37486.000,"cc",28271.334,1,0.100,32539.000,0.200,2449.000,0.300,948.000,0.500,1108.000,1.000,442.000,5.000,0
"03/04/08","00:12:34",37801.000,"cc",28313.252,1,0.100,32830.000,0.200,2423.000,0.300,989.000,0.500,1133.000,1.000,426.000,5.000,0
"03/04/08","00:12:40",38695.000,"cc",28292.797,1,0.100,33355.000,0.200,2616.000,0.300,1024.000,0.500,1246.000,1.000,454.000,5.000,0
"03/04/08","00:12:46",37936.000,"cc",28329.822,1,0.100,32762.000,0.200,2573.000,0.300,1000.000,0.500,1182.000,1.000,419.000,5.000,0
"03/04/08","00:12:52",38136.000,"cc",28360.234,1,0.100,33111.000,0.200,2461.000,0.300,944.000,0.500,1178.000,1.000,442.000,5.000,0
"03/04/08","00:12:58",37416.000,"cc",28295.238,1,0.100,32571.000,0.200,2406.000,0.300,936.000,0.500,1079.000,1.000,424.000,5.000,0
"03/04/08","00:13:04",37965.000,"cc",28329.981,1,0.100,32725.000,0.200,2502.000,0.300,1052.000,0.500,1200.000,1.000,486.000,5.000,0
"03/04/08","00:13:10",38661.000,"cc",28323.025,1,0.100,33047.000,0.200,2650.000,0.300,1117.000,0.500,1389.000,1.000,458.000,5.000,0
"03/04/08","00:13:16",38084.000,"cc",28316.600,1,0.100,32957.000,0.200,2496.000,0.300,973.000,0.500,1200.000,1.000,458.000,5.000,0
"03/04/08","00:13:22",38016.000,"cc",28330.975,1,0.100,32929.000,0.200,2477.000,0.300,1017.000,0.500,1176.000,1.000,417.000,5.000,0
"03/04/08","00:13:28",38160.000,"cc",28304.662,1,0.100,33030.000,0.200,2548.000,0.300,1006.000,0.500,1135.000,1.000,441.000,5.000,0
"03/04/08","00:13:34",38048.000,"cc",28344.539,1,0.100,32855.000,0.200,2499.000,0.300,1014.000,0.500,1232.000,1.000,448.000,5.000,0
"03/04/08","00:13:40",37801.000,"cc",28310.238,1,0.100,32849.000,0.200,2445.000,0.300,970.000,0.500,1091.000,1.000,446.000,5.000,0
"03/04/08","00:13:46",37740.000,"cc",28329.471,1,0.100,32654.000,0.200,2466.000,0.300,940.000,0.500,1257.000,1.000,423.000,5.000,0
"03/04/08","00:13:52",38052.000,"cc",28268.266,1,0.100,32697.000,0.200,2647.000,0.300,1129.000,0.500,1111.000,1.000,468.000,5.000,0
"03/04/08","00:13:58",38575.000,"cc",28279.773,1,0.100,32965.000,0.200,2783.000,0.300,1125.000,0.500,1264.000,1.000,438.000,5.000,0
"03/04/08","00:14:04",38534.000,"cc",28322.381,1,0.100,33288.000,0.200,2554.000,0.300,1031.000,0.500,1192.000,1.000,469.000,5.000,0
"03/04/08","00:14:10",37883.000,"cc",28379.957,1,0.100,32734.000,0.200,2492.000,0.300,960.000,0.500,1243.000,1.000,454.000,5.000,0
"03/04/08","00:14:16",37723.000,"cc",28332.959,1,0.100,32684.000,0.200,2522.000,0.300,937.000,0.500,1168.000,1.000,412.000,5.000,0
"03/04/08","00:14:22",37577.000,"cc",28267.051,1,0.100,32544.000,0.200,2465.000,0.300,969.000,0.500,1152.000,1.000,447.000,5.000,0
"03/04/08","00:14:28",37666.000,"cc",28302.232,1,0.100,32636.000,0.200,2471.000,0.300,973.000,0.500,1141.000,1.000,445.000,5.000,0
"03/04/08","00:14:34",37495.000,"cc",28290.486,1,0.100,32555.000,0.200,2473.000,0.300,893.000,0.500,1141.000,1.000,433.000,5.000,0
"03/04/08","00:14:40",37930.000,"cc",28282.568,1,0.100,33013.000,0.200,2361.000,0.300,911.000,0.500,1185.000,1.000,460.000,5.000,0
"03/04/08","00:14:46",37531.000,"cc",28326.180,1,0.100,32510.000,0.200,2447.000,0.300,939.000,0.500,1181.000,1.000,454.000,5.000,0
"03/04/08","00:14:52",37212.000,"cc",28390.498,1,0.100,32413.000,0.200,2333.000,0.300,873.000,0.500,1152.000,1.000,441.000,5.000,0
"03/04/08","00:14:58",37277.000,"cc",28299.766,1,0.100,32474.000,0.200,2385.000,0.300,898.000,0.500,1105.000,1.000,415.000,5.000,0
"03/04/08","00:15:04",37178.000,"cc",28328.008,1,0.100,32270.000,0.200,2353.000,0.300,975.000,0.500,1158.000,1.000,422.000,5.000,0
"03/04/08","00:15:10",37872.000,"cc",28321.998,1,0.100,32645.000,0.200,2540.000,0.300,1040.000,0.500,1189.000,1.000,458.000,5.000,0
"03/04/08","00:15:16",37859.000,"cc",28292.008,1,0.100,32905.000,0.200,2356.000,0.300,983.000,0.500,1166.000,1.000,449.000,5.000,0
"03/04/08","00:15:22",37983.000,"cc",28335.594,1,0.100,32842.000,0.200,2528.000,0.300,996.000,0.500,1198.000,1.000,418.000,5.000,1.000
"03/04/08","00:15:28",38022.000,"cc",28313.191,1,0.100,32719.000,0.200,2527.000,0.300,1038.000,0.500,1274.000,1.000,464.000,5.000,0
"03/04/08","00:15:34",38238.000,"cc",28324.440,1,0.100,32951.000,0.200,2539.000,0.300,1039.000,0.500,1230.000,1.000,479.000,5.000,0
"03/04/08","00:15:40",38930.000,"cc",28272.631,1,0.100,33187.000,0.200,2776.000,0.300,1142.000,0.500,1327.000,1.000,498.000,5.000,0
"03/04/08","00:15:46",38301.000,"cc",28270.289,1,0.100,32791.000,0.200,2689.000,0.300,1085.000,0.500,1266.000,1.000,470.000,5.000,0
"03/04/08","00:15:52",38043.000,"cc",28372.617,1,0.100,32798.000,0.200,2488.000,0.300,1040.000,0.500,1227.000,1.000,490.000,5.000,0
"03/04/08","00:15:58",38276.000,"cc",28306.381,1,0.100,33072.000,0.200,2467.000,0.300,1000.000,0.500,1260.000,1.000,477.000,5.000,0
"03/04/08","00:16:04",38024.000,"cc",28309.861,1,0.100,32923.000,0.200,2453.000,0.300,974.000,0.500,1201.000,1.000,473.000,5.000,0
"03/04/08","00:16:10",38032.000,"cc",28318.428,1,0.100,32910.000,0.200,2477.000,0.300,1027.000,0.500,1148.000,1.000,470.000,5.000,0
"03/04/08","00:16:16",37889.000,"cc",28259.981,1,0.100,32646.000,0.200,2585.000,0.300,1005.000,0.500,1184.000,1.000,469.000,5.000,0
"03/04/08","00:16:22",37501.000,"cc",28297.359,1,0.100,32605.000,0.200,2371.000,0.300,960.000,0.500,1159.000,1.000,406.000,5.000,0
"03/04/08","00:16:28",38132.000,"cc",28385.240,1,0.100,32796.000,0.200,2605.000,0.300,1033.000,0.500,1195.000,1.000,503.000,5.000,0
"03/04/08","00:16:34",37467.000,"cc",28330.602,1,0.100,32292.000,0.200,2402.000,0.300,1107.000,0.500,1197.000,1.000,469.000,5.000,0
"03/04/08","00:16:40",37816.000,"cc",28329.502,1,0.100,32782.000,0.200,2425.000,0.300,995.000,0.500,1172.000,1.000,442.000,5.000,0
"03/04/08","00:16:46",37486.000,"cc",28311.762,1,0.100,32439.000,0.200,2473.000,0.300,963.000,0.500,1162.000,1.000,449.000,5.000,0
"03/04/08","00:16:52",37723.000,"cc",28322.432,1,0.100,32726.000,0.200,2379.000,0.300,961.000,0.500,1177.000,1.000,480.000,5.000,0
"03/04/08","00:16:58",37626.000,"cc",28253.180,1,0.100,32682.000,0.200,2488.000,0.300,894.000,0.500,1142.000,1.000,420.000,5.000,0
"03/04/08","00:17:04",37523.000,"cc",28348.387,1,0.100,32460.000,0.200,2443.000,0.300,978.000,0.500,1185.000,1.000,457.000,5.000,0